EW3016 Weather Reports


Display with metric or nautical units.
time (UTC)temp
F
wind
direction
speed
MPH
gust
MPH
rain 1hr
in
rain 24hr
in
rain mn
in
humidity
%
barometer
mb
20260504050017 47 0.0 0.0 0.00 0.00 0.00 59 1010.5
20260504043017 47 0.0 0.0 0.00 0.00 0.00 59 1010.6
20260504040017 47 0.0 2.0 0.00 0.00 0.00 59 1010.8
20260504033017 48 248 1.0 7.0 0.00 0.00 0.00 58 1010.8
20260504030037 47 248 1.0 7.0 0.00 0.00 0.00 58 1010.9
20260504023017 46 0.0 0.0 0.00 0.00 0.00 59 1011.0
20260504020017 46 0.0 0.0 0.00 0.00 0.00 57 1010.9
20260504013017 47 0.0 0.0 0.00 0.00 0.00 57 1010.9
20260504010017 47 0.0 0.0 0.00 0.00 0.00 55 1010.5
20260504003017 48 0.0 0.0 0.00 0.00 0.00 54 1010.1
20260504000017 49 0.0 0.0 0.00 0.00 0.00 51 1010.0
20260503233017 51 270 1.0 8.0 0.00 0.00 0.00 49 1009.8
20260503230057 52 248 4.0 13.0 0.00 0.00 0.00 48 1009.8
20260503223016 51 248 7.0 16.0 0.00 0.00 0.00 50 1009.9
20260503220016 50 248 8.0 22.0 0.00 0.00 0.00 50 1009.9
20260503213017 50 270 8.0 19.0 0.00 0.00 0.00 46 1009.5
20260503210016 51 248 7.0 17.0 0.00 0.00 0.00 44 1009.3
20260503203016 51 270 6.0 16.0 0.00 0.00 0.00 42 1009.5
20260503200038 51 293 8.0 21.0 0.00 0.00 0.00 37 1009.5
20260503193016 51 293 8.0 21.0 0.00 0.00 0.00 36 1010.0
20260503190016 52 293 9.0 22.0 0.00 0.00 0.00 36 1010.3
20260503183016 50 248 8.0 21.0 0.00 0.00 0.00 37 1010.5
20260503180016 48 293 8.0 19.0 0.00 0.00 0.00 40 1010.6
20260503173036 47 270 8.0 17.0 0.00 0.00 0.00 44 1010.7